Regional Weather Roundup
Issued by NWS

Home | Current Version | Previous Version | Graphics & Text | Print | Product List | Glossary On
Versions: 1 2 3 4 5 6 7 8 9 10 11 12 13 14 15 16 17 18 19 20 21 22 23 24 25 26 27 28 29 30 31 32 33 34 35 36 37 38 39 40 41 42 43 44 45 46 47 48 49 50
000
ASUS44 KMEG 250810
RWRTN
TENNESSEE HOURLY STATE WEATHER ROUNDUP
NATIONAL WEATHER SERVICE MEMPHIS TN
200 AM CST SAT FEB 25 2017

TNZ002-004-019-021-049-052-054-088>092-250900-
WEST TENNESSEE

CITY           SKY/WX    TMP DP  RH WIND       PRES   REMARKS
MEMPHIS INTL   CLEAR     44  29  55 NW23G30   29.94R
NWS MEMPHIS      N/A     45 N/A N/A MISG        N/A
JACKSON        CLEAR     47  31  53 W12       29.90R
UNION CITY     CLEAR     43  23  45 W16       29.87R
PARIS          CLEAR     43  28  56 W7        29.85R
HUNTINGDON     CLEAR     46  30  53 W10G18    29.85R
$$

TNZ008-025-027-028-033-062-065-066-250900-
NORTH MIDDLE TENNESSEE

CITY           SKY/WX    TMP DP  RH WIND       PRES   REMARKS
NASHVILLE      CLOUDY    57  28  33 W20G32    29.79R
PORTLAND       CLOUDY    54  43  66 NW13      29.77R
CLARKSVILLE    MOCLDY    49  29  46 NW12      29.80R
SMYRNA         CLOUDY    57  39  51 NW15G24   29.79R
COOKEVILLE     CLOUDY    55  48  76 NW3       29.72R
GALLATIN       CLOUDY    57  34  41 NW14G22   29.79R
CROSSVILLE     CLOUDY    56  55  97 W7        29.71S
$$

TNZ061-075-076-078-094-096-097-250900-
SOUTH MIDDLE TENNESSEE

CITY           SKY/WX    TMP DP  RH WIND       PRES   REMARKS
FAYETTEVILLE   CLOUDY    57  43  58 NW8G17    29.78R
TULLAHOMA      CLOUDY    54  43  66 NW12      29.77R
WINCHESTER     MOCLDY    57  48  72 NW7       29.76R
MCMINNVILLE    CLOUDY    57  52  82 NW8       29.74R
COLUMBIA       MOCLDY    54  28  37 NW13      29.80R
SHELBYVILLE    PTCLDY    55  45  67 W8        29.77R
$$

TNZ017-018-042-046-047-250900-
NORTHEAST TENNESSEE

CITY           SKY/WX    TMP DP  RH WIND       PRES   REMARKS
TRI CITIES     CLOUDY    64  50  60 S5        29.66F
ELIZABETHTON   MOCLDY    55  50  82 CALM      29.68F
$$

TNZ012-013-036-069-073-074-250900-
CENTRAL EAST TENNESSEE

CITY           SKY/WX    TMP DP  RH WIND       PRES   REMARKS
KNOXVILLE      CLOUDY    65  54  67 SW10      29.64F
OAK RIDGE      RAIN      59  55  87 VRB3      29.70R FOG
GATLINBURG     CLOUDY    70  50  49 W5        29.64S
MORRISTOWN     CLOUDY    64  52  63 SW7       29.65S
JACKSBORO      CLOUDY    59  54  82 VRB6G13   29.68S
$$

TNZ083-085-099-250900-
SOUTHEAST TENNESSEE

CITY           SKY/WX    TMP DP  RH WIND       PRES   REMARKS
CHATTANOOGA    TSTM      61  57  87 S5        29.73R
$$

SKY/WX REPORTED AS FAIR MEANS FEW OR NO CLOUDS BELOW
12 THOUSAND FEET.




USA.gov is the U.S. government's official web portal to all federal, state and local government web resources and services.